Location: Unspecified
(0.0000°N, 0.0000°E)
Time: 05:45:59
(UTC+00:00)

Hubble Space Telescope - Pass Details

Date: 26 November 2020
Orbit: 536 x 540 km, 28.5° (Epoch: 03 December)

Event Time Altitude Azimuth Distance (km) Brightness Sun altitude
Exits shadow 03:59:37 16° 32° (NNE) 1,433 3.0 -25.0°
Drops below altitude 10° 04:01:59 10° 68° (ENE) 1,781 4.0 -24.5°
Sets 04:04:57 0° 89° (E) 2,674 5.4 -23.8°
